OPTUS D2

Last updated on Wed Sep 17 2025 00:02:46 GMT+0000 (Coordinated Universal Time)

1 32252U 07044A 25259.58936537 .00000013 00000+0 00000+0 0 9990 2 32252 1.3623 85.4447 0003012 99.0059 52.2270 0.99343335 65829
UTC large
Height (km)
Speed (km/s)
/
Latitude / Longitude
Inclination (degrees)
Orbital Period (minutes)
Azimuth
Elevation
Range (km)
Doppler Factor

Next 0 passes for location: London (51.5072 / 0.1276)

Sorry there are no passes over London.